Temperature
13 12 12 12 13 13 13 13 13 13 13 14 14 14 14 14 14 14 14 14 14 14 14 14 14 14 14 14 14 14 14 14 14 14 14 15 15 14 14 14 14 14 14
12 12 12 12 12 13 13 13 13 13 13 13 13 13 14 14 14 14 14 14 14 14 14 14 14 14 14 14 14 14 14 14 14 14 14 14 14 14 14 14 14 14 14
12 12 12 12 12 12 12 13 13 13 13 13 13 13 13 14 14 14 14 14 14 13 13 13 13 14 13 14 14 14 14 14 14 14 14 14 14 14 14 14 14 14 14
12 12 12 12 12 12 12 12 12 13 13 13 13 13 13 13 13 13 13 13 13 13 13 13 13 13 13 13 13 13 14 13 14 14 14 14 14 14 14 14 14 14 14
12 12 12 12 12 12 12 12 12 12 12 12 13 13 13 13 13 13 13 13 13 13 13 13 13 13 13 13 13 13 13 13 13 13 13 14 14 14 14 14 14 14 14
11 11 11 12 12 12 12 12 12 12 12 12 12 12 13 13 13 13 13 13 13 13 13 13 13 13 13 13 13 13 13 13 13 13 13 13 13 13 13 13 13 13 13
11 11 11 11 11 11 12 12 12 12 12 12 12 12 12 12 12 12 12 12 12 12 12 12 12 12 12 12 13 13 13 13 13 13 13 13 13 13 13 13 13 13 13
11 11 11 11 11 11 11 11 11 11 11 11 12 12 12 12 12 12 12 12 12 12 12 12 12 12 12 12 12 13 13 13 13 13 13 13 13 13 12 13 13 13 13
10 10 11 11 11 11 11 11 11 11 11 11 11 11 11 12 11 11 11 12 12 12 12 12 12 12 12 12 12 12 12 12 12 13 13 12 12 12 12 12 12 12 12
10 10 10 10 10 10 10 10 10 11 11 11 11 11 11 11 11 11 11 11 11 11 11 11 11 11 11 11 11 12 12 12 12 12 12 12 12 12 12 12 12 12 12
9 9 10 10 10 10 10 10 10 10 10 10 10 10 11 11 11 11 11 11 11 11 11 11 11 11 11 11 11 11 11 11 12 12 11 11 11 11 11 11 12 12 12
9 9 9 9 9 9 9 9 10 10 10 10 10 10 10 10 10 10 10 10 10 10 10 10 10 10 10 10 11 11 11 11 11 11 11 11 11 11 11 11 11 11 11
8 8 8 9 9 9 9 9 9 9 9 9 9 9 10 10 10 10 10 10 10 10 10 10 10 10 10 10 10 10 10 10 10 10 11 11 11 11 11 11 11 11 11
8 8 8 8 8 8 8 8 8 9 9 9 9 9 9 9 9 9 9 9 9 9 9 9 9 9 9 9 9 10 10 10 10 10 10 10 10 10 10 10 10 10 10
7 7 7 7 7 8 8 8 8 8 8 8 8 8 8 8 9 9 9 9 9 9 9 9 9 9 9 9 9 9 9 9 9 9 10 10 10 10 10 10 10 10 10
6 6 6 7 7 7 7 7 7 7 7 8 8 8 8 8 8 8 8 8 8 8 8 8 8 8 8 8 8 8 8 8 9 9 9 9 9 10 10 10 10 10 10
5 6 6 6 6 6 6 6 6 6 7 7 7 7 7 7 7 7 7 7 7 7 7 8 8 8 8 8 8 8 8 8 8 8 9 9 9 9 9 9 9 9 9
5 5 5 5 5 6 6 6 6 6 6 6 6 6 6 6 6 7 7 7 7 7 7 7 7 7 7 7 7 7 7 7 8 8 8 8 8 9 9 9 9 9 9
4 4 5 5 5 5 5 5 5 5 5 5 6 6 6 6 6 6 6 6 6 6 6 6 6 6 6 6 7 7 7 7 7 7 7 7 8 8 8 8 8 9 9
4 4 4 4 4 4 4 4 4 5 5 5 5 5 5 5 5 5 5 6 6 6 6 6 6 6 6 6 6 6 6 6 6 7 7 7 7 7 7 7 8 8 8
3 3 3 3 4 4 4 4 4 4 4 4 4 4 4 4 5 5 5 5 5 5 5 5 5 5 5 5 5 6 6 6 6 6 6 6 7 7 7 7 7 7 7
2 3 3 3 3 3 3 3 3 3 3 3 3 4 4 4 4 4 4 4 4 4 4 4 4 4 5 4 4 4 5 5 5 6 6 6 6 6 6 6 6 6 7
2 2 2 2 2 2 2 2 2 2 3 3 3 3 3 3 3 3 3 3 4 4 4 4 4 4 4 4 4 3 4 4 4 4 5 5 5 5 5 6 6 6 6
1 1 1 1 1 1 1 1 1 1 1 2 2 2 2 2 2 2 3 3 3 3 3 3 3 3 3 3 3 3 3 3 3 3 4 4 4 5 5 5 5 5 5
0 0 0 0 0 0 0 0 0 0 1 1 1 1 1 2 2 2 2 2 2 2 2 2 2 2 3 2 3 2 3 2 2 2 3 3 4 4 4 4 4 5 5
-0 -0 -0 -0 -0 -0 -0 -0 -0 -0 -0 0 0 0 1 1 1 1 1 1 1 2 2 2 2 2 2 2 2 2 2 2 2 2 2 2 3 3 4 4 4 4 4
Wind_Speed
2 3 1 4 6 7 8 9 9 10 10 10 10 11 11 11 11 11 11 11 11 11 12 12 13 13 13 14 14 15 15 15 15 15 15 14 14 13 14 14 13 13 14
0 1 3 4 6 7 8 8 9 9 9 10 10 10 10 10 10 10 10 10 11 11 11 12 12 12 13 13 14 14 14 14 14 14 14 13 12 12 12 12 12 12 14
3 3 3 5 6 7 8 8 8 8 9 9 9 10 10 10 10 10 10 10 10 11 11 11 12 12 12 12 12 13 13 13 13 12 12 11 10 11 11 12 12 13 13
4 4 4 6 7 7 8 8 8 8 8 9 9 9 9 10 10 10 10 10 10 11 11 11 11 11 11 12 12 12 12 12 12 11 11 9 9 9 10 11 12 12 12
5 5 5 7 7 8 8 8 8 8 8 8 9 9 9 10 9 10 10 10 10 10 10 10 10 10 11 11 11 11 11 11 11 11 10 9 8 8 9 10 10 10 11
6 7 7 9 8 9 9 8 7 7 7 8 9 9 10 10 10 10 10 10 10 10 10 9 9 9 10 10 10 10 10 10 10 10 9 8 7 7 8 9 9 9 10
6 7 7 8 9 9 9 9 8 8 7 7 9 9 9 9 10 10 10 10 9 9 9 8 8 9 9 9 9 9 9 9 10 9 8 7 6 6 7 8 8 9 9
6 7 8 8 8 9 9 9 9 9 9 9 9 9 9 9 9 9 9 9 9 8 8 8 8 8 8 8 8 8 8 7 8 7 6 6 5 6 7 7 7 8 8
8 8 7 7 7 8 8 9 9 8 9 9 9 9 9 9 9 9 9 9 8 8 8 7 8 8 8 8 8 8 8 8 8 6 5 5 5 5 5 5 6 6 7
7 7 7 7 7 8 7 8 9 8 8 9 9 9 9 9 8 8 8 9 8 8 8 7 8 8 8 8 8 8 8 8 7 6 5 4 4 5 4 4 4 5 6
6 6 6 7 7 7 6 7 8 8 8 9 9 9 9 8 8 8 8 8 8 8 8 8 9 8 8 8 8 8 7 6 6 5 4 3 4 4 4 4 4 4 5
4 4 5 5 6 6 6 7 7 7 8 8 8 8 7 7 7 7 8 8 8 8 8 8 8 9 8 7 7 7 6 6 5 4 4 4 3 3 3 3 3 4 4
2 4 4 5 5 6 5 6 6 6 7 8 8 8 7 7 7 7 7 8 8 8 8 8 8 7 7 6 5 5 5 5 4 4 4 4 2 2 2 2 2 3 4
3 3 4 4 5 5 5 5 5 5 6 6 6 7 6 6 6 6 6 6 7 6 6 6 6 6 6 6 5 4 5 4 4 4 5 5 3 1 1 1 1 3 4
3 3 4 4 4 4 5 4 4 4 5 5 6 6 6 5 4 5 5 5 6 6 6 5 5 5 5 5 5 4 4 4 4 4 4 5 4 2 1 1 1 2 3
3 3 3 4 4 4 4 3 3 4 4 5 5 5 5 4 4 4 4 4 5 5 4 4 4 3 3 4 4 4 4 4 4 4 3 4 4 4 2 0 0 1 2
3 4 4 3 4 4 3 4 4 4 4 4 5 5 5 4 3 3 3 3 4 4 4 4 4 4 3 3 3 4 3 3 3 4 3 3 3 4 3 1 1 1 1
4 4 4 4 5 4 4 4 3 4 4 4 5 5 5 4 3 3 2 2 3 3 3 2 2 2 2 3 3 3 3 3 3 3 3 3 3 4 4 2 2 2 2
3 4 4 5 5 5 4 4 4 4 4 4 5 5 5 5 4 3 2 2 3 3 2 1 2 1 1 2 2 2 2 2 2 3 3 4 3 3 3 3 2 2 2
4 4 5 5 5 5 4 3 3 4 4 4 4 5 5 5 4 3 3 3 2 2 1 1 1 2 1 1 2 3 2 2 2 2 2 3 3 3 3 3 3 2 2
5 5 5 5 5 4 3 2 2 2 3 3 4 5 6 6 5 3 2 2 2 0 0 0 1 2 2 2 1 2 2 2 2 2 2 2 3 4 4 4 3 2 2
4 4 4 4 4 4 3 2 1 2 1 2 4 5 6 5 5 3 3 2 2 1 0 0 1 1 1 1 1 1 2 2 2 2 2 2 3 3 3 4 3 3 2
4 4 4 4 4 4 4 3 3 3 2 3 4 4 6 6 5 4 3 2 2 1 1 1 1 1 1 0 1 1 1 2 2 2 2 2 2 2 3 3 3 3 3
3 3 4 4 4 4 4 4 3 2 2 3 3 4 6 7 6 5 4 3 2 1 1 1 0 1 2 1 1 1 1 1 1 2 2 2 2 2 3 3 3 3 3
2 3 3 4 5 5 5 4 3 3 2 3 4 4 4 5 6 6 5 4 3 2 1 1 1 1 1 2 2 1 0 0 1 1 3 3 2 2 2 3 3 3 3
3 3 4 4 5 5 5 4 3 3 3 4 5 5 4 4 5 7 6 4 4 3 2 2 1 1 2 2 2 2 1 1 1 1 2 3 3 3 2 2 2 2 2
Wind_Direction
299 315 49 105 101 100 96 92 89 89 89 87 85 84 81 78 77 77 75 72 73 73 75 77 79 78 77 75 74 72 71 70 70 69 69 71 72 75 75 76 74 75 79
205 11 75 102 110 108 101 96 92 88 88 88 87 85 81 78 76 75 75 74 72 72 73 75 76 76 76 76 75 74 71 71 69 66 65 66 72 76 77 79 80 81 82
77 71 74 92 107 111 105 101 96 90 89 90 89 86 83 80 77 74 75 74 72 70 71 74 75 76 77 77 76 75 72 70 68 64 62 63 71 77 80 82 84 82 83
81 79 72 91 102 106 106 104 100 94 90 89 87 85 82 79 76 74 74 76 74 71 70 74 77 78 78 76 75 75 71 69 66 63 60 60 67 77 80 83 84 83 83
69 70 76 85 97 101 100 102 100 96 92 88 86 84 81 78 77 75 73 73 72 71 71 72 77 78 78 76 74 73 69 65 63 59 57 58 65 76 79 84 85 85 85
57 60 69 74 80 89 90 89 90 91 90 87 85 83 81 78 76 74 73 72 70 70 72 71 74 78 77 75 73 72 69 64 64 56 54 58 68 81 84 89 90 91 89
59 57 63 69 68 72 76 76 73 73 79 83 84 83 79 76 74 71 70 70 69 69 72 74 73 79 79 77 75 71 68 64 65 56 53 58 71 85 89 91 95 96 94
64 59 60 63 65 64 63 66 65 63 65 73 74 76 75 73 72 72 69 67 66 69 73 75 74 75 79 78 76 73 70 67 64 55 50 55 74 82 88 91 95 101 99
60 59 55 54 59 58 58 59 58 63 65 67 69 66 66 68 67 67 68 68 65 64 67 74 74 69 75 79 74 71 70 67 63 54 50 58 76 85 88 92 96 103 101
52 48 46 48 54 54 51 55 55 57 63 63 66 66 64 65 64 61 64 66 64 65 66 70 71 69 70 76 74 70 69 66 54 46 48 63 72 81 88 90 96 107 109
45 37 35 39 46 52 54 51 54 56 61 61 62 65 62 59 60 58 58 63 64 63 62 65 67 68 69 71 72 67 64 61 51 43 40 53 73 82 88 92 102 111 113
37 25 27 32 37 47 50 48 49 54 56 57 58 57 56 55 57 60 57 56 60 63 63 61 63 64 62 62 63 62 58 52 49 35 33 33 59 83 91 94 110 120 123
35 27 23 28 37 47 48 48 46 50 54 52 52 54 57 55 53 54 53 49 50 54 52 53 54 51 55 59 58 60 57 52 42 30 21 19 29 70 96 106 124 133 141
37 20 14 22 35 46 53 55 52 50 50 47 43 49 56 52 44 42 44 42 43 42 43 43 48 44 42 44 52 57 56 51 37 27 19 14 8 30 83 92 158 155 153
38 13 8 17 33 46 56 56 56 50 49 47 45 41 50 55 45 41 38 40 40 39 41 36 38 40 36 29 33 42 41 37 27 22 14 11 9 11 52 71 126 172 167
17 9 11 20 28 48 50 48 53 52 48 50 48 39 43 51 53 50 40 36 32 30 36 39 33 34 33 30 25 24 23 25 22 15 8 3 5 8 10 5 341 208 200
14 17 18 21 26 41 49 48 50 45 45 41 36 36 38 39 45 52 46 36 24 26 34 41 41 37 32 28 17 13 19 20 16 7 5 4 354 353 354 356 355 14 202
27 27 21 23 26 26 35 46 53 44 39 35 33 27 26 23 31 49 47 31 26 35 38 46 55 34 22 15 0 352 1 5 10 5 8 7 0 348 341 350 15 18 23
33 33 30 28 25 16 22 42 52 51 38 28 27 19 13 15 17 31 44 26 34 39 33 35 45 49 19 6 353 347 353 348 351 7 11 5 360 350 337 331 347 360 1
40 38 35 34 26 19 19 32 39 36 28 27 24 11 6 7 8 20 27 18 32 41 30 38 66 44 39 5 355 350 338 337 354 3 356 2 3 0 353 351 347 340 343
38 34 29 28 24 26 16 11 8 356 350 1 13 11 5 2 2 14 12 10 14 19 351 21 95 69 34 16 26 351 338 346 21 9 360 13 8 3 9 8 4 4 341
33 26 23 20 19 21 14 356 339 328 334 344 2 7 2 359 357 359 4 352 354 339 0 32 101 95 50 39 59 24 329 329 354 353 356 19 357 359 6 0 3 2 343
21 11 9 7 15 15 17 21 9 14 6 354 349 349 351 350 352 353 344 345 342 328 249 238 190 152 170 200 56 141 172 245 314 316 328 356 346 348 349 353 356 348 346
1 6 11 11 19 19 28 31 23 10 343 323 324 327 343 350 349 351 347 353 342 339 294 261 271 208 172 194 249 285 215 180 204 300 306 319 331 336 332 333 332 334 341
8 16 15 19 21 20 24 25 23 5 337 331 335 335 337 344 347 348 347 352 344 338 326 316 297 254 207 208 208 227 243 351 205 222 276 300 313 299 301 301 309 316 324
17 19 18 20 16 15 17 17 13 357 344 342 340 334 329 330 339 348 346 343 332 327 314 298 278 257 241 230 222 211 205 206 213 217 246 276 284 285 287 275 280 304 315
Height
1532 1533 1534 1535 1536 1537 1537 1538 1538 1539 1539 1540 1540 1540 1540 1541 1541 1541 1541 1542 1542 1542 1542 1543 1543 1543 1543 1544 1544 1544 1545 1545 1545 1546 1546 1547 1547 1548 1548 1548 1548 1548 1549
1531 1533 1534 1535 1536 1537 1538 1538 1539 1539 1539 1540 1540 1541 1541 1541 1541 1542 1542 1542 1542 1543 1543 1543 1543 1544 1544 1544 1545 1545 1545 1546 1546 1547 1547 1548 1549 1549 1549 1549 1550 1550 1550
1531 1533 1534 1535 1536 1537 1538 1538 1539 1539 1540 1540 1541 1541 1541 1541 1542 1542 1542 1543 1543 1543 1543 1544 1544 1544 1545 1545 1545 1546 1546 1547 1547 1548 1548 1549 1550 1550 1550 1551 1551 1551 1552
1531 1533 1534 1535 1536 1537 1538 1538 1539 1540 1540 1540 1541 1541 1541 1541 1542 1542 1543 1543 1543 1544 1544 1544 1544 1545 1545 1545 1546 1546 1547 1547 1548 1548 1549 1550 1550 1551 1552 1552 1552 1552 1553
1532 1533 1534 1535 1536 1537 1538 1538 1539 1540 1540 1540 1541 1541 1541 1542 1542 1542 1543 1543 1543 1544 1544 1544 1545 1545 1545 1546 1546 1547 1547 1548 1548 1549 1549 1550 1551 1552 1552 1553 1553 1553 1554
1531 1533 1534 1535 1536 1537 1537 1538 1539 1540 1540 1540 1541 1541 1541 1541 1542 1542 1542 1543 1543 1543 1544 1544 1545 1545 1546 1546 1547 1547 1548 1548 1548 1549 1550 1550 1551 1552 1552 1553 1553 1554 1555
1531 1533 1534 1535 1536 1536 1537 1538 1539 1539 1540 1540 1540 1541 1541 1541 1542 1542 1542 1542 1543 1543 1544 1544 1545 1545 1546 1546 1547 1547 1548 1548 1548 1549 1550 1550 1551 1552 1553 1553 1554 1554 1555
1531 1533 1534 1535 1536 1536 1536 1537 1538 1539 1539 1540 1540 1540 1540 1541 1541 1541 1542 1542 1542 1543 1543 1544 1544 1545 1545 1546 1546 1547 1547 1548 1548 1549 1550 1550 1551 1552 1553 1553 1554 1554 1555
1532 1532 1533 1534 1535 1536 1536 1537 1538 1538 1539 1539 1540 1540 1540 1540 1541 1541 1541 1541 1542 1542 1543 1543 1544 1544 1545 1545 1546 1546 1547 1548 1548 1549 1550 1550 1551 1552 1552 1553 1554 1554 1555
1531 1532 1533 1534 1535 1535 1536 1537 1537 1538 1539 1539 1539 1539 1540 1540 1540 1540 1540 1541 1541 1541 1542 1542 1543 1543 1544 1544 1545 1545 1546 1547 1547 1548 1549 1550 1551 1551 1552 1553 1553 1554 1555
1531 1532 1532 1533 1534 1534 1535 1536 1537 1537 1538 1538 1538 1539 1539 1539 1539 1539 1540 1540 1540 1540 1541 1541 1542 1542 1543 1543 1544 1544 1545 1546 1547 1547 1548 1549 1550 1551 1551 1552 1553 1553 1554
1530 1531 1531 1532 1533 1534 1534 1535 1536 1536 1537 1537 1538 1538 1538 1539 1538 1538 1539 1539 1539 1539 1540 1540 1540 1541 1541 1542 1542 1543 1544 1545 1545 1546 1547 1548 1549 1550 1550 1551 1552 1552 1553
1529 1530 1531 1531 1532 1533 1533 1534 1534 1535 1535 1536 1537 1537 1537 1537 1537 1537 1537 1538 1538 1538 1538 1539 1539 1540 1540 1540 1541 1542 1542 1543 1544 1545 1546 1547 1547 1548 1549 1550 1551 1551 1552
1528 1529 1530 1530 1531 1531 1532 1532 1533 1533 1534 1534 1535 1535 1536 1536 1536 1536 1536 1536 1536 1536 1537 1537 1538 1538 1539 1539 1539 1540 1540 1541 1542 1543 1544 1545 1546 1547 1547 1548 1549 1550 1551
1527 1528 1529 1529 1530 1530 1530 1531 1531 1532 1532 1533 1533 1533 1534 1534 1534 1534 1534 1534 1534 1535 1535 1535 1536 1536 1537 1537 1538 1538 1539 1539 1540 1541 1542 1543 1544 1545 1545 1546 1548 1548 1549
1525 1526 1527 1528 1528 1529 1529 1529 1530 1530 1530 1531 1531 1532 1532 1532 1532 1532 1532 1532 1532 1532 1533 1533 1533 1534 1535 1535 1536 1536 1537 1537 1538 1539 1540 1541 1542 1543 1543 1544 1545 1546 1547
1524 1525 1526 1526 1527 1527 1528 1528 1528 1528 1528 1528 1529 1529 1530 1530 1530 1530 1530 1530 1530 1530 1530 1531 1531 1532 1532 1533 1534 1534 1535 1535 1536 1536 1537 1538 1539 1540 1541 1542 1543 1544 1545
1523 1524 1524 1525 1525 1525 1526 1526 1526 1526 1526 1526 1526 1527 1527 1527 1528 1528 1528 1528 1528 1528 1528 1528 1529 1529 1530 1530 1531 1532 1532 1533 1533 1534 1534 1535 1536 1537 1538 1539 1540 1541 1542
1522 1522 1523 1523 1523 1523 1524 1524 1524 1524 1524 1524 1524 1524 1524 1524 1524 1525 1525 1525 1525 1525 1525 1526 1526 1526 1527 1527 1528 1529 1530 1530 1530 1531 1531 1532 1533 1534 1535 1536 1537 1538 1539
1520 1521 1521 1521 1521 1521 1522 1522 1522 1522 1522 1522 1521 1521 1521 1521 1521 1521 1521 1522 1522 1522 1523 1523 1523 1524 1524 1524 1525 1526 1526 1527 1527 1527 1528 1529 1530 1531 1532 1533 1534 1535 1537
1518 1519 1519 1519 1519 1519 1519 1519 1519 1519 1519 1519 1518 1518 1518 1518 1518 1518 1518 1518 1519 1519 1519 1519 1520 1521 1521 1522 1522 1522 1523 1524 1524 1524 1525 1526 1527 1528 1529 1530 1531 1532 1534
1516 1517 1517 1517 1517 1517 1516 1516 1516 1516 1516 1516 1516 1515 1515 1515 1515 1515 1515 1515 1515 1516 1516 1516 1517 1517 1518 1519 1520 1520 1520 1521 1520 1521 1522 1522 1524 1525 1526 1527 1528 1529 1530
1514 1515 1515 1515 1514 1514 1514 1514 1514 1513 1513 1513 1513 1512 1512 1512 1512 1511 1512 1512 1512 1512 1512 1513 1513 1514 1514 1516 1517 1518 1518 1517 1517 1518 1518 1519 1520 1521 1522 1523 1524 1525 1526
1513 1513 1513 1512 1512 1512 1512 1511 1511 1510 1510 1510 1509 1509 1509 1509 1508 1508 1508 1508 1508 1508 1509 1509 1510 1510 1511 1512 1514 1515 1516 1515 1516 1515 1516 1516 1517 1518 1519 1520 1520 1521 1522
1511 1511 1511 1511 1510 1510 1510 1509 1509 1508 1507 1507 1506 1505 1505 1505 1505 1504 1504 1504 1504 1505 1505 1506 1506 1507 1507 1508 1509 1510 1511 1512 1513 1513 1512 1513 1514 1514 1515 1516 1517 1518 1519
1509 1509 1509 1508 1508 1508 1507 1507 1506 1505 1504 1504 1503 1502 1502 1501 1501 1501 1501 1500 1501 1501 1501 1502 1502 1503 1504 1504 1505 1506 1507 1508 1508 1509 1509 1509 1509 1510 1511 1512 1513 1514 1515